(304933) = 2007 RK324 = 2010 GX138

Discovered at Mount Lemmon on 2007-09-15 by Mt. Lemmon Survey.

Orbit

Orbit type: Main Belt

Note: WebGL enabled browser required.

epoch2023-09-13.0
epoch JD2460200.5
perihelion date2019-10-09.34607
perihelion JD2458765.84607
argument of perihelion (°)116.99423
ascending node (°)207.08369
inclination (°)24.88493
eccentricity0.0972917
perihelion distance (AU)2.3647902
Tisserand w.r.t. Jupiter3.3
ΔV w.r.t. Earth (km/sec)12.5
semimajor axis (AU)2.6196614
mean anomaly (°)333.49034
mean daily motion (°/day)0.23245350
aphelion distance (AU)2.875
period (years)4.24
P-vector [x]0.77214935
P-vector [y]-0.61984005
P-vector [z]0.13994175
Q-vector [x]0.60587162
Q-vector [y]0.78454168
Q-vector [z]0.13196184
absolute magnitude16.66
phase slope0.15
uncertainty0
referenceMPEC 2023-R58
observations used221
oppositions12
arc length (days)6289
first opposition used2006
last opposition used2023
residual rms (arc-secs)0.81
perturbers coarse indicatorM-v
perturbers precise indicator003Ek
first observation date used2006-06-19.0
last observation date used2023-09-07.0
computer nameMPCLINUX
JD of orbit computation2456789.280411
perihelion JD uncertainty (days)2.7535E-04
argument of perihelion uncertainty (°)6.2594E-05
ascending node uncertainty (°)1.0282E-05
inclination uncertainty (°)1.0874E-05
eccentricity uncertainty 4.8398E-08
perihelion distance uncertainty (AU)1.3155E-07
Minimum Orbit Intersection Distances (in AU)
for orbit epoch: 2460200.5, reference: E2023-R58
Mercury2.01685
Venus1.70935
Earth1.43342
Mars1.05076
Jupiter2.4505
Saturn6.53932
Uranus15.7237
Neptune27.3067

Observations

226 total observations over interval: 2006 06 19.29025 – 2023 09 07.280816
These data are available for download (format description).

Date (UT) J2000 RA J2000 Dec Magn Location Ref
2006 06 19.29025 17 23 46.89 +11 13 46.0 19.7 V G96 – Mt. Lemmon Survey MPS 326382
2006 06 19.30389 17 23 46.17 +11 13 50.1 19.5 V G96 – Mt. Lemmon Survey MPS 326382
2006 06 19.31083 17 23 45.81 +11 13 52.4 19.9 V G96 – Mt. Lemmon Survey MPS 326382
2006 07 20.57466 17 03 37.70 +11 08 11.9 21.0 R D35 – Lulin Observatory MPS 326382
2006 07 20.59221 17 03 37.42 +11 08 07.2 20.8 R D35 – Lulin Observatory MPS 326382
2006 07 20.60964 17 03 37.02 +11 08 02.5 21.3 R D35 – Lulin Observatory MPS 326382
2007 09 15.38957 03 09 05.83 +16 08 20.7 21.2 V G96 – Mt. Lemmon Survey MPS 326382
2007 09 15.39518 03 09 05.86 +16 08 17.5 20.9 V G96 – Mt. Lemmon Survey MPS 326382
2007 09 15.40081 03 09 05.94 +16 08 14.6 20.6 V G96 – Mt. Lemmon Survey MPS 326382
2007 09 15.40639 03 09 05.94 +16 08 11.1 20.7 V G96 – Mt. Lemmon Survey MPS 326382
2007 10 09.31757 03 04 24.58 +11 30 10.7 20.5 V 691 – Steward Observatory, Kitt Peak-Spacewatch MPS 326382
2007 10 09.33522 03 04 23.99 +11 29 56.7 20.4 V 691 – Steward Observatory, Kitt Peak-Spacewatch MPS 326382
2007 10 09.35285 03 04 23.39 +11 29 41.4 20.5 V 691 – Steward Observatory, Kitt Peak-Spacewatch MPS 326382
2007 11 02.30565 02 46 59.84 +05 43 08.6 20.1 V G96 – Mt. Lemmon Survey MPS 326382
2007 11 02.31387 02 46 59.41 +05 43 01.7 20.1 V G96 – Mt. Lemmon Survey MPS 326382
2007 11 02.32205 02 46 58.98 +05 42 54.8 19.9 V G96 – Mt. Lemmon Survey MPS 326382
2007 11 02.33018 02 46 58.54 +05 42 47.6 19.9 V G96 – Mt. Lemmon Survey MPS 326382
2007 11 11.19989 02 39 33.18 +03 42 34.3 20.0   704 – Lincoln Laboratory ETS, New Mexico MPS 326382
2007 11 11.22462 02 39 31.82 +03 42 14.9 20.5   704 – Lincoln Laboratory ETS, New Mexico MPS 326382
2007 11 11.23671 02 39 31.19 +03 42 06.2 20.6   704 – Lincoln Laboratory ETS, New Mexico MPS 326382
2010 04 06.35059 15 58 46.78 -09 02 05.9 21.0 V 691 – Steward Observatory, Kitt Peak-Spacewatch MPS 323677
2010 04 06.36823 15 58 46.57 -09 01 52.4 21.3 V 691 – Steward Observatory, Kitt Peak-Spacewatch MPS 323677
2010 04 06.38588 15 58 46.38 -09 01 39.8 21.1 V 691 – Steward Observatory, Kitt Peak-Spacewatch MPS 323677
2010 04 15.46412 15 56 09.78 -07 04 48.9 20.8 V 691 – Steward Observatory, Kitt Peak-Spacewatch MPS 323677
2010 04 15.47680 15 56 09.48 -07 04 38.5 20.8 V 691 – Steward Observatory, Kitt Peak-Spacewatch MPS 323677
2010 04 15.48949 15 56 09.16 -07 04 28.2 20.7 V 691 – Steward Observatory, Kitt Peak-Spacewatch MPS 323677
2010 05 12.20581 15 38 27.11 -01 03 06.4 20.7 V 691 – Steward Observatory, Kitt Peak-Spacewatch MPS 327369
2010 05 12.22346 15 38 26.22 -01 02 52.8 20.3 V 691 – Steward Observatory, Kitt Peak-Spacewatch MPS 327369
2010 05 12.24111 15 38 25.31 -01 02 39.5 20.6 V 691 – Steward Observatory, Kitt Peak-Spacewatch MPS 327369
2010 05 12.39411 15 38 17.33 -01 00 43.8 20.5 V 291 – LPL/Spacewatch II MPS 327369
2010 05 12.40104 15 38 16.97 -01 00 38.6 20.7 V 291 – LPL/Spacewatch II MPS 327369
2010 05 12.40794 15 38 16.61 -01 00 33.3 20.3 V 291 – LPL/Spacewatch II MPS 327369
2010 05 16.18709 15 35 06.21 -00 14 10.1 20.1 V 691 – Steward Observatory, Kitt Peak-Spacewatch MPS 327369
2010 05 16.20477 15 35 05.27 -00 13 56.9 20.5 V 691 – Steward Observatory, Kitt Peak-Spacewatch MPS 327369
2010 05 16.22244 15 35 04.35 -00 13 44.5 20.3 V 691 – Steward Observatory, Kitt Peak-Spacewatch MPS 327369
2010 08 03.716878 15 20 11.03 +03 00 49.3   C51 – WISE MPS 344947
2010 08 03.849183 15 20 16.53 +03 00 14.0   C51 – WISE MPS 344947
2010 08 03.981486 15 20 21.97 +02 59 35.6   C51 – WISE MPS 344947
2010 08 04.113791 15 20 27.54 +02 58 57.5   C51 – WISE MPS 344947
2010 08 04.246094 15 20 32.99 +02 58 20.0   C51 – WISE MPS 344947
2010 08 04.312309 15 20 35.70 +02 57 59.5   C51 – WISE MPS 344947
2010 08 04.444486 15 20 41.34 +02 57 23.1   C51 – WISE MPS 344947
2010 08 04.444613 15 20 41.27 +02 57 23.9   C51 – WISE MPS 344947
2010 08 04.510701 15 20 44.09 +02 57 04.3   C51 – WISE MPS 344947
2010 08 04.576789 15 20 46.87 +02 56 45.8   C51 – WISE MPS 344947
2010 08 04.643006 15 20 49.68 +02 56 25.8   C51 – WISE MPS 344947
2010 08 04.709094 15 20 52.52 +02 56 07.5   C51 – WISE MPS 344947
2010 08 04.841397 15 20 58.207 +02 55 30.40   C51 – WISE MPS 904000
2010 08 04.973701 15 21 03.74 +02 54 51.8   C51 – WISE MPS 344947
2010 08 05.106005 15 21 09.40 +02 54 12.3   C51 – WISE MPS 344947
2011 09 27.31598 00 41 56.72 +17 44 04.4 20.1 V 703 – Catalina Sky Survey MPS 392698
2011 09 27.31935 00 41 56.47 +17 44 01.1 19.8 V 703 – Catalina Sky Survey MPS 392698
2011 09 27.32273 00 41 56.36 +17 43 57.3 19.9 V 703 – Catalina Sky Survey MPS 392698
2011 09 27.32610 00 41 56.32 +17 43 54.9 20.6 V 703 – Catalina Sky Survey MPS 392698
2011 10 23.09802 00 24 43.31 +10 34 39.7 20.2 V 691 – Steward Observatory, Kitt Peak-Spacewatch MPS 396366
2011 10 23.14499 00 24 41.77 +10 33 53.3 20.3 V 691 – Steward Observatory, Kitt Peak-Spacewatch MPS 396366
2011 10 23.16102 00 24 41.28 +10 33 37.3 20.2 V 691 – Steward Observatory, Kitt Peak-Spacewatch MPS 396366
2011 10 26.09396 00 23 17.01 +09 45 29.0 20.2 V 691 – Steward Observatory, Kitt Peak-Spacewatch MPS 396366
2011 10 26.10723 00 23 16.68 +09 45 16.2 20.4 V 691 – Steward Observatory, Kitt Peak-Spacewatch MPS 396366
2011 10 26.12855 00 23 16.05 +09 44 56.1 20.1 V 691 – Steward Observatory, Kitt Peak-Spacewatch MPS 396366
2011 10 29.29193 00 21 57.737 +08 54 36.67 20.9 g F51 – Pan-STARRS 1, Haleakala MPS 398261
2011 10 29.30448 00 21 57.398 +08 54 25.04 21.2 g F51 – Pan-STARRS 1, Haleakala MPS 398261
2013 01 21.40836 07 33 16.356 -15 39 22.43 20.5 i F51 – Pan-STARRS 1, Haleakala MPS 453160
2013 01 21.42178 07 33 15.636 -15 39 19.30 20.5 i F51 – Pan-STARRS 1, Haleakala MPS 453160
2014 03 27.52812 14 04 44.126 -14 43 09.36 20.8 w F51 – Pan-STARRS 1, Haleakala MPS 508383
2014 03 27.53946 14 04 43.721 -14 43 01.95 20.8 w F51 – Pan-STARRS 1, Haleakala MPS 508383
2014 03 27.55031 14 04 43.340 -14 42 54.73 20.9 w F51 – Pan-STARRS 1, Haleakala MPS 508383
2014 03 27.56115 14 04 42.970 -14 42 47.49 21.0 w F51 – Pan-STARRS 1, Haleakala MPS 508383
2014 04 04.27920 13 59 55.00 -13 11 46.7 20.5 V 691 – Steward Observatory, Kitt Peak-Spacewatch MPS 509657
2014 04 04.29692 13 59 54.24 -13 11 33.7 21.1 V 691 – Steward Observatory, Kitt Peak-Spacewatch MPS 509657
2014 04 04.31464 13 59 53.48 -13 11 20.3 20.9 V 691 – Steward Observatory, Kitt Peak-Spacewatch MPS 509657
2014 04 04.45108 13 59 47.865 -13 09 37.54 20.5 w F51 – Pan-STARRS 1, Haleakala MPS 510978
2014 04 04.46246 13 59 47.381 -13 09 29.01 20.6 w F51 – Pan-STARRS 1, Haleakala MPS 510978
2014 04 04.47381 13 59 46.889 -13 09 20.48 20.6 w F51 – Pan-STARRS 1, Haleakala MPS 510978
2014 04 04.48516 13 59 46.400 -13 09 12.08 20.7 w F51 – Pan-STARRS 1, Haleakala MPS 510978
2014 04 23.02019 13 45 37.55 -09 01 05.3 20.2 V W84 – Cerro Tololo-DECam MPS 789544
2014 04 23.02338 13 45 37.41 -09 01 02.6   W84 – Cerro Tololo-DECam MPS 789544
2014 04 23.02657 13 45 37.25 -09 01 00.0   W84 – Cerro Tololo-DECam MPS 789544
2014 04 23.02977 13 45 37.09 -09 00 57.4   W84 – Cerro Tololo-DECam MPS 789544
2014 04 23.03290 13 45 36.94 -09 00 54.8   W84 – Cerro Tololo-DECam MPS 789544
2014 04 24.03929 13 44 49.51 -08 47 06.4 20.3   W84 – Cerro Tololo-DECam MPS 789544
2014 04 24.04248 13 44 49.36 -08 47 03.9   W84 – Cerro Tololo-DECam MPS 789544
2014 04 24.04564 13 44 49.21 -08 47 01.2   W84 – Cerro Tololo-DECam MPS 789544
2014 04 24.04890 13 44 49.05 -08 46 58.5   W84 – Cerro Tololo-DECam MPS 789544
2014 04 24.05215 13 44 48.89 -08 46 55.8   W84 – Cerro Tololo-DECam MPS 789544
2014 04 25.03865 13 44 02.68 -08 33 25.9 20.3 V W84 – Cerro Tololo-DECam MPS 789544
2014 04 25.04179 13 44 02.53 -08 33 23.3   W84 – Cerro Tololo-DECam MPS 789544
2014 04 25.04498 13 44 02.38 -08 33 20.7   W84 – Cerro Tololo-DECam MPS 789544
2014 04 25.04814 13 44 02.22 -08 33 18.1   W84 – Cerro Tololo-DECam MPS 789544
2014 04 25.05141 13 44 02.07 -08 33 15.4   W84 – Cerro Tololo-DECam MPS 789544
2014 05 01.30145 13 39 18.47 -07 09 18.3 20.8 V G96 – Mt. Lemmon Survey MPS 513681
2014 05 01.30652 13 39 18.30 -07 09 15.2 21.0 V G96 – Mt. Lemmon Survey MPS 513681
2014 05 01.31159 13 39 18.00 -07 09 11.0 20.3 V G96 – Mt. Lemmon Survey MPS 513681
